User: anonymous   Login
Location: Unspecified
(0.0000°N, 0.0000°E)
Time: 23:38:13
(UTC+00:00)
Language:

GALEX - Orbit

View from above orbital plane
View from above orbital plane
View from above satellite
View from above satellite

Ground track
Ground track

The orbit data is extracted from the following two-line orbital elements,

1 27783U 03017A   19047.90533116 +.00000181 +00000-0 +14371-4 0  9997
2 27783 028.9988 321.7195 0003595 294.0734 065.9477 14.62135809844735
Epoch (UTC): 16 February 2019 21:43:40
Eccentricity: 0.0003595
inclination: 28.9988°
perigee height: 684 km
apogee height: 689 km
right ascension of ascending node: 321.7195°
argument of perigee: 294.0734°
revolutions per day: 14.62135809
mean anomaly at epoch: 65.9477°
orbit number at epoch: 84473

The dashed part of the orbit path shows where the satellite is in the earth's shadow,  

DLR